Theta_e
317 312 311 309 297 295 291 295 296 296 296 297 298 298 295 294 294 297 302 302 304 306 307 310 319 320 320 321 322 322 323 324 324 325 325 326 326 326 327 328 329 332 336 340 343 343 342 342 342
312 312 310 303 293 289 292 295 295 298 297 297 298 298 295 292 296 297 298 302 303 304 306 309 316 318 319 320 320 321 321 322 323 324 324 324 324 324 324 325 325 326 330 334 337 340 341 342 342
310 306 300 295 289 288 291 297 295 296 297 297 294 296 294 292 295 296 299 302 303 303 305 307 315 317 318 319 320 320 321 322 322 322 322 323 322 323 323 323 323 323 325 328 333 336 339 339 340
305 302 295 289 286 287 292 296 296 296 296 297 295 291 293 296 296 296 301 301 301 301 302 306 314 316 317 317 318 318 318 319 319 319 320 320 320 320 320 321 321 321 322 323 325 330 333 334 336
302 295 289 285 284 287 294 298 296 295 294 294 294 291 291 295 297 298 299 300 299 299 301 302 311 313 314 315 315 316 316 317 317 317 317 318 318 318 319 319 319 320 320 321 322 323 326 330 332
298 295 288 285 284 286 288 296 295 293 293 292 291 289 290 294 295 296 298 298 299 299 301 301 305 309 311 312 313 314 315 315 316 316 316 316 315 316 316 317 317 318 319 320 321 321 321 324 329
296 290 285 283 284 286 289 293 292 292 290 290 293 287 289 292 294 296 296 297 298 299 299 299 300 302 306 309 311 312 313 314 314 314 314 314 313 313 313 314 314 316 316 317 317 318 318 320 324
294 290 283 283 284 285 288 289 291 290 288 292 291 287 286 291 295 296 296 296 297 298 298 298 299 300 300 301 309 310 311 311 311 311 311 310 309 310 310 311 312 315 315 314 315 315 317 319 320
294 289 284 285 286 288 288 289 289 290 290 289 290 289 291 294 295 294 293 295 295 298 297 298 297 298 300 303 305 306 308 309 309 307 308 305 304 304 306 309 312 314 314 314 314 314 316 316 318
292 287 288 288 287 286 287 288 290 288 287 287 288 291 293 293 292 292 292 292 293 294 295 297 297 298 299 304 302 301 304 304 303 303 302 302 303 303 306 307 310 311 311 312 314 314 313 312 313
287 288 287 287 288 288 288 286 288 287 285 288 288 290 291 290 292 292 292 292 292 293 295 296 296 297 298 300 301 301 302 302 302 302 301 302 302 303 304 305 307 308 309 308 309 309 307 308 311
288 287 287 289 290 289 288 288 286 287 287 289 290 291 290 290 291 291 291 292 293 293 294 296 296 297 298 299 300 301 301 300 299 301 301 299 301 302 303 306 307 308 309 308 309 307 308 308 310
287 286 288 288 289 288 289 286 287 287 288 289 291 292 290 290 291 291 292 293 293 293 294 295 296 296 298 299 300 299 300 299 297 297 298 298 297 299 303 304 304 305 307 308 309 310 309 309 312
286 287 286 287 287 287 286 286 286 286 288 289 290 289 289 290 291 290 291 291 292 294 293 295 296 296 298 298 298 298 297 296 295 294 294 295 295 296 298 299 299 301 303 305 308 311 311 311 315
286 284 284 284 285 285 287 284 285 286 288 288 288 288 289 290 292 290 290 291 291 292 293 294 296 296 296 296 296 296 296 295 293 293 292 292 293 293 296 295 295 297 299 301 303 305 306 306 307
284 281 279 281 286 285 284 280 282 286 287 286 286 285 288 290 291 290 292 291 291 292 292 293 296 295 295 295 294 294 293 292 291 290 290 291 292 292 293 292 291 294 295 296 299 302 301 301 301
281 277 277 280 286 284 282 279 283 286 286 285 285 285 287 288 289 290 291 291 291 291 292 292 292 293 294 294 293 291 291 290 290 289 289 289 290 291 290 290 290 291 290 291 294 298 299 297 297
277 277 278 278 284 283 281 283 283 284 286 286 285 284 286 287 289 291 291 291 292 291 290 290 291 291 293 293 293 290 289 289 289 288 288 288 288 289 289 289 288 289 288 287 289 292 296 295 295
280 279 277 279 283 282 281 282 285 285 285 285 285 285 286 287 290 291 292 291 291 289 289 289 289 290 290 290 289 289 287 287 287 287 287 287 287 287 287 287 287 287 286 285 286 288 290 292 293
280 279 278 281 283 282 280 282 285 285 286 287 288 287 286 288 288 289 290 290 291 288 289 288 289 289 289 289 289 289 287 287 286 286 286 286 286 286 287 286 286 286 285 284 284 286 287 288 292
280 280 279 279 281 281 280 279 281 284 285 287 290 290 288 288 288 289 289 288 288 287 287 288 288 288 288 289 290 288 287 285 284 284 284 284 285 285 285 285 285 285 285 283 283 284 286 285 288
280 284 283 283 280 276 279 274 280 283 284 285 288 287 286 287 289 290 289 287 286 286 287 288 289 289 289 289 286 284 282 282 283 283 283 283 284 284 284 285 284 284 284 283 283 283 284 284 282
282 286 284 282 279 277 277 275 281 283 284 288 285 285 285 288 290 289 289 289 287 287 287 287 288 288 288 287 286 283 282 282 282 282 282 282 283 283 283 283 283 283 283 283 282 282 282 284 283
287 285 283 280 278 274 278 277 279 283 284 285 285 283 285 288 290 290 290 288 287 287 287 287 287 287 287 286 285 283 282 281 280 281 281 281 281 282 282 283 282 283 282 282 282 282 281 281 282
284 282 277 275 272 276 277 274 281 286 285 284 285 284 286 289 289 289 288 287 287 287 287 287 286 285 285 285 285 284 283 281 281 281 281 281 280 280 281 281 281 281 282 282 282 282 282 281 280
281 282 278 272 273 275 278 278 284 283 285 286 286 284 286 287 289 289 288 287 287 288 287 287 285 284 284 285 284 284 283 282 281 281 281 281 281 280 281 280 281 281 281 281 282 282 281 281 280
281 279 282 278 268 273 278 282 286 284 284 285 284 285 285 286 287 288 287 287 287 287 287 286 286 285 284 284 284 283 282 281 281 281 281 281 281 282 280 280 280 280 281 281 280 282 281 280 280
282 284 279 277 271 269 276 276 280 282 282 284 283 283 284 285 286 286 287 287 288 287 287 287 286 284 283 284 284 283 282 281 281 281 281 281 281 281 280 280 280 280 280 280 280 279 280 279 279
280 279 280 280 279 274 271 278 281 279 282 283 284 284 285 286 286 286 288 288 288 287 287 287 286 284 283 284 283 282 281 281 281 280 280 280 280 280 280 279 279 279 279 279 278 279 279 278 278
281 280 281 277 276 276 276 276 283 283 284 284 284 285 285 287 287 287 288 287 286 287 286 286 285 284 283 283 282 282 281 280 280 279 280 280 279 280 279 279 279 279 279 278 278 277 277 277 277
Wind_Speed
5 4 2 5 6 6 2 1 1 2 2 3 2 4 7 5 4 2 3 6 7 6 6 8 17 18 18 17 17 16 16 18 17 17 17 18 18 18 19 20 19 21 22 22 21 20 18 16 13
3 0 5 3 6 3 1 1 3 2 5 5 5 3 5 3 2 3 2 7 8 7 7 8 16 17 15 16 15 16 17 16 17 18 18 18 19 19 19 20 20 21 20 22 23 24 21 20 14
1 3 5 6 4 3 3 2 4 3 5 2 4 6 2 2 2 3 4 6 6 7 7 9 15 15 15 14 14 16 17 16 17 18 18 19 19 19 20 20 19 19 20 22 20 22 22 21 21
3 5 5 6 3 1 1 3 4 5 2 6 3 6 3 1 2 3 5 6 7 6 6 10 15 16 16 15 16 16 16 16 16 17 17 18 19 19 19 19 20 20 20 20 22 22 21 21 23
4 4 5 5 2 2 0 4 4 3 3 3 2 3 3 3 6 6 6 7 7 6 6 7 17 18 16 14 15 14 14 14 14 15 16 18 18 18 19 19 20 20 20 20 21 21 22 21 20
5 4 5 2 1 2 1 4 4 2 2 3 5 4 3 3 4 4 5 7 6 7 7 8 12 14 13 12 14 14 14 14 15 15 17 17 17 18 19 20 20 20 21 22 22 21 22 22 21
7 5 3 4 4 0 3 4 3 5 3 2 8 5 1 2 4 5 7 7 5 6 6 6 7 8 11 12 15 15 15 15 16 16 17 17 17 17 18 18 19 20 21 21 21 22 22 22 20
6 6 4 1 5 3 6 3 3 3 2 3 1 4 4 4 5 5 5 6 6 6 6 6 6 6 6 6 12 14 14 15 15 16 17 17 17 18 18 19 19 21 21 22 21 22 21 22 20
3 6 3 6 7 4 5 4 1 2 6 2 1 3 4 6 4 4 4 6 6 7 6 6 6 6 6 4 6 9 11 13 16 15 19 14 8 10 15 19 21 20 20 21 21 22 21 21 19
6 5 8 5 4 4 5 2 8 4 3 1 2 3 4 5 5 7 6 6 6 6 6 5 6 6 6 5 6 5 7 6 9 10 12 9 11 11 15 15 20 21 20 18 18 19 21 18 8
2 3 5 3 3 4 7 2 2 7 4 7 8 9 5 3 5 6 4 3 3 4 4 6 6 6 6 5 4 4 4 6 6 11 12 11 9 8 7 6 6 7 12 6 9 8 6 11 8
6 3 2 1 3 5 7 6 3 6 3 2 5 8 6 5 5 4 4 4 4 5 5 6 7 6 7 4 5 5 5 6 6 9 12 10 7 8 8 6 9 8 7 10 8 5 8 9 9
4 2 4 2 4 3 6 4 5 7 1 4 9 8 8 6 5 4 2 3 3 5 6 7 7 6 5 6 5 7 7 6 8 8 10 9 9 9 9 8 9 9 10 9 10 9 10 8 7
3 4 3 3 2 3 1 1 0 1 7 8 8 8 7 7 6 3 2 2 4 4 6 5 6 6 6 7 7 6 6 7 7 6 8 10 8 8 8 9 9 9 10 10 9 10 10 9 10
3 4 3 1 1 1 2 6 10 4 7 9 8 7 7 6 5 4 3 2 3 3 4 5 5 6 7 6 6 5 6 7 7 7 9 11 11 10 8 8 9 10 10 12 10 11 10 10 10
5 5 1 1 4 1 3 10 4 6 10 9 8 6 6 5 5 4 4 3 4 5 6 5 5 5 6 6 5 5 7 7 7 7 7 12 12 12 9 9 9 10 9 10 10 11 11 10 10
6 3 3 4 5 2 3 8 1 4 6 7 8 8 8 6 4 4 4 4 4 4 4 5 5 4 5 6 5 6 7 6 6 7 8 12 12 13 9 9 10 10 9 10 10 10 12 11 11
5 4 4 4 4 1 2 16 9 3 8 11 9 9 8 8 8 6 5 4 4 4 4 4 4 4 4 3 4 4 5 5 6 7 9 12 10 12 10 9 11 10 10 10 10 11 10 11 12
4 4 3 3 3 4 7 11 15 7 6 10 11 12 12 10 6 6 5 5 5 4 5 4 5 4 3 3 2 2 3 4 7 7 11 12 11 12 12 9 10 10 11 11 12 10 12 13 15
2 2 3 1 2 4 4 14 11 7 10 15 18 16 16 10 8 7 7 6 4 4 4 4 5 5 4 2 2 2 1 3 3 5 9 11 11 12 11 11 10 12 9 13 13 13 7 7 12
2 4 4 2 1 2 5 10 6 6 7 7 15 12 15 19 15 11 9 7 6 5 5 5 4 6 4 4 2 2 2 3 4 6 6 9 10 11 11 12 10 10 10 9 11 12 13 8 8
2 3 2 4 3 4 3 8 7 6 10 9 12 12 10 12 10 10 10 7 7 6 5 6 4 6 5 5 5 5 3 3 3 3 3 6 10 10 11 11 10 10 8 11 10 9 11 9 10
3 2 3 2 4 2 1 2 9 4 9 14 3 8 8 14 16 16 14 10 7 7 6 6 5 6 5 5 5 4 7 3 2 2 5 7 7 9 10 10 10 10 8 9 11 11 12 10 8
5 5 6 5 3 2 2 4 6 5 5 6 4 3 9 13 13 12 10 9 7 6 6 6 7 5 5 4 6 8 6 5 4 4 5 5 4 6 9 9 9 8 9 9 8 9 11 9 9
3 5 3 5 3 6 3 4 13 7 7 5 7 5 9 14 13 13 15 11 9 8 7 7 9 6 5 5 6 7 6 5 6 5 4 5 4 4 8 8 8 6 7 8 8 9 10 9 8
3 4 6 7 2 3 2 6 9 2 1 2 5 3 6 8 10 12 12 11 10 9 7 7 9 8 6 5 5 5 5 4 4 5 3 4 4 3 5 5 6 7 8 8 9 7 8 8 7
5 4 3 5 2 3 3 8 11 4 6 5 5 5 6 7 9 11 10 9 9 7 7 8 9 7 7 6 4 5 5 6 5 5 4 3 4 4 5 5 6 8 9 9 9 7 8 7 7
1 1 4 3 1 4 4 5 7 6 7 6 1 3 4 4 6 9 10 9 7 7 6 5 6 8 7 6 5 5 6 6 5 5 5 5 5 4 5 5 6 8 9 9 9 7 8 8 7
2 1 3 2 4 4 1 7 5 3 4 7 6 5 8 9 9 9 9 9 9 7 8 8 6 6 6 6 5 5 6 6 5 4 4 4 4 4 5 5 5 7 9 9 9 8 9 9 9
1 5 5 5 5 3 3 9 3 4 5 3 1 4 6 8 11 12 13 11 11 11 10 10 9 7 6 5 5 5 5 5 5 5 5 4 5 4 5 4 5 7 9 8 9 9 8 9 10
Wind_Direction
345 346 79 43 56 66 97 102 59 104 84 354 38 76 119 63 49 143 204 32 29 34 8 358 0 354 354 353 351 352 357 352 352 352 350 349 347 345 341 339 334 330 325 321 322 304 272 269 267
333 307 45 83 82 69 260 278 137 128 127 140 68 53 43 77 64 95 49 27 46 32 11 349 359 353 352 354 351 360 354 354 355 354 351 349 348 342 339 336 332 327 324 323 319 317 311 280 261
262 35 76 86 103 136 151 193 121 64 137 67 75 50 52 63 75 90 14 57 51 37 11 348 3 2 1 359 1 360 358 358 357 355 354 351 347 343 341 335 332 331 329 322 319 317 319 317 285
60 17 37 75 68 23 21 144 114 124 48 57 126 77 60 22 47 35 70 48 55 31 4 1 10 8 7 6 7 2 2 1 3 360 357 353 350 345 342 340 335 329 326 324 318 313 318 321 329
38 57 62 76 29 331 336 156 133 101 91 53 11 138 84 62 99 70 55 46 45 21 1 2 11 10 5 3 3 2 2 2 2 1 360 357 351 351 347 342 337 335 330 324 321 316 310 309 315
47 93 62 122 151 343 55 159 134 98 135 130 71 106 172 84 94 53 58 51 41 20 6 5 2 2 359 359 12 10 9 4 3 360 356 353 349 346 347 345 344 337 331 326 323 316 314 308 308
106 75 112 125 164 330 205 142 146 137 107 67 147 132 229 120 128 89 64 51 34 19 13 357 351 330 346 356 10 9 11 11 8 3 0 358 354 349 350 345 344 341 336 329 325 320 307 306 310
101 91 96 178 187 237 174 102 109 96 163 119 120 195 211 173 147 123 82 48 32 20 9 353 333 343 338 329 9 14 16 18 13 11 5 0 358 354 349 349 340 342 340 336 328 324 316 309 304
119 69 151 197 152 226 174 135 61 101 116 108 67 135 121 130 116 57 24 17 16 13 0 351 338 334 336 339 4 4 8 5 16 8 3 358 349 347 351 347 348 344 338 334 332 328 325 315 306
78 104 207 176 185 183 180 164 163 149 117 209 63 60 96 70 65 58 32 9 7 355 340 353 345 350 345 358 357 348 353 2 11 5 4 355 348 347 340 334 335 333 331 331 336 335 330 322 307
38 142 162 181 216 141 151 117 155 131 226 207 195 177 158 105 70 66 41 14 337 319 350 349 354 347 355 358 1 2 8 13 2 8 6 351 344 334 325 326 328 318 324 316 320 324 323 315 318
85 47 359 41 144 129 158 116 189 196 206 293 198 150 141 127 99 89 51 9 359 352 355 359 4 6 359 0 10 12 18 13 10 7 2 352 337 333 338 339 344 340 336 333 323 326 317 310 319
83 137 65 35 94 87 129 157 217 238 213 108 128 131 139 139 131 105 94 35 7 19 7 6 11 9 1 16 21 21 17 13 12 7 3 354 347 345 342 347 354 354 355 352 341 332 334 319 310
101 88 82 30 104 109 134 261 215 218 133 125 140 151 157 160 161 141 86 39 28 30 19 4 25 14 16 23 31 25 19 12 9 2 359 350 356 352 356 350 358 358 357 351 349 353 350 340 343
98 73 23 170 160 88 145 279 235 165 155 159 170 167 167 169 150 159 142 99 42 42 32 20 37 28 36 25 25 27 21 17 5 0 359 360 1 356 360 4 2 358 360 1 3 6 359 1 355
64 54 74 288 139 351 105 268 14 155 155 190 188 188 186 189 181 167 156 119 80 67 51 38 39 37 45 48 34 28 28 25 10 1 359 6 3 3 12 12 8 0 9 7 10 9 4 360 358
10 203 204 316 200 117 155 268 90 153 181 208 207 207 206 205 195 186 168 145 105 76 62 52 47 47 67 58 48 43 34 33 11 7 8 7 8 10 12 18 8 7 18 17 5 17 17 4 357
203 212 227 234 197 145 209 265 262 204 195 219 210 212 213 208 212 185 172 158 119 84 71 68 50 40 62 65 53 44 41 32 22 19 16 10 10 14 16 19 16 15 22 21 11 11 19 14 356
140 183 203 201 161 158 236 267 273 225 215 229 221 210 208 207 191 169 177 160 117 81 77 64 78 24 50 54 22 12 27 19 31 21 20 15 11 16 24 20 20 20 28 22 16 6 16 20 3
140 162 256 47 81 174 356 279 261 221 233 214 214 210 202 182 166 171 176 177 174 134 107 75 70 55 47 62 63 62 43 51 47 16 26 17 13 18 27 24 22 22 24 24 27 26 19 21 21
188 206 196 211 61 204 341 289 318 274 253 231 225 214 195 189 172 172 174 174 160 154 137 101 68 71 51 66 90 65 46 40 15 17 22 15 14 18 24 26 29 28 27 26 26 29 30 36 25
217 196 117 122 88 247 54 284 308 268 273 239 233 205 188 175 158 161 168 172 173 168 131 109 86 79 58 60 66 68 95 87 25 347 360 22 16 18 28 27 26 36 29 32 27 29 37 30 36
205 79 125 114 116 56 173 53 266 268 271 273 328 207 174 173 167 171 174 170 169 153 148 122 96 77 65 69 92 92 79 73 56 18 35 27 10 20 22 34 29 33 31 28 33 34 38 40 43
142 86 50 55 74 3 306 152 286 246 231 324 9 151 160 167 170 162 150 143 152 152 148 130 111 89 82 84 83 84 93 94 81 46 50 34 359 12 20 33 37 31 34 25 23 35 37 34 33
80 81 324 343 16 225 179 85 248 276 310 285 303 213 169 164 165 158 156 160 159 166 158 140 124 115 106 93 89 93 94 87 77 64 49 49 16 8 21 24 36 30 24 27 28 31 35 28 33
147 154 163 227 223 277 270 244 251 159 267 336 6 133 141 154 155 162 164 164 163 165 170 146 134 133 121 101 102 102 94 89 76 69 63 60 50 9 4 24 40 33 32 29 40 36 35 24 33
185 182 151 104 60 54 253 291 305 47 358 30 64 112 161 158 155 161 161 164 157 161 174 159 136 129 129 128 130 113 104 91 86 73 60 56 39 48 24 25 47 45 41 38 45 43 28 21 26
1 131 80 2 235 277 294 275 247 349 345 355 320 197 177 156 154 152 161 159 159 153 150 141 139 146 139 139 136 124 111 98 93 86 74 68 51 33 21 16 48 56 51 46 50 38 17 24 25
128 167 59 106 157 186 265 259 214 278 301 308 327 202 184 178 174 170 171 167 161 150 152 144 142 139 141 139 126 125 114 106 101 94 83 73 65 56 47 21 44 58 57 45 48 41 23 24 26
162 203 174 137 209 214 134 268 228 271 256 268 327 202 204 192 181 174 171 165 164 166 163 163 150 149 146 141 126 121 114 105 109 112 105 91 80 58 55 31 48 56 60 53 48 42 25 22 23